Miscellaneous Local Product
Issued by NWS North Platte, NE

Home | Current Version | Previous Version | Graphics & Text | Print | Product List | Glossary On
Versions: 1 2 3 4 5 6 7 8 9 10 11 12 13 14 15 16 17 18 19 20 21 22 23 24 25 26 27 28 29 30 31 32 33 34 35 36 37 38 39 40 41 42 43 44 45 46 47 48 49 50
000
AXUS43 KLBF 190610
MISLBF


WESTERN AND NORTH CENTRAL NEBRASKA HOURLY WEATHER ROUNDUP
NATIONAL WEATHER SERVICE NORTH PLATTE NE
100 AM CDT THU APR 19 2018

NOTE: "FAIR" INDICATES FEW OR NO CLOUDS BELOW 12,000 FEET WITH NO
SIGNIFICANT WEATHER AND/OR OBSTRUCTIONS TO VISIBILITY.

NOTE: STATIONS NOT REPORTING VARIABLES SUCH AS SKY/WEATHER OR
PRESSURE ARE PROVIDED BY RAWS AND APRS NETWORKS AND ARE NOT UNDER
NATIONAL WEATHER SERVICE QUALITY CONTROL.

...OBSERVATIONS IN AND NEAR THE EASTERN PANHANDLE OF NEBRASKA...

CITY           SKY/WX    TMP DP  RH WIND       PRES   REMARKS
PINE RIDGE     CLEAR     33  32  96 E6        30.30R WCI  28
GORDON         FAIR      28  26  93 CALM      30.30R
CHADRON        CLEAR     38  31  76 S3        30.28F
ALLIANCE       PTCLDY    31  27  85 E3        30.28R
SIDNEY         CLEAR     31  22  69 E9        30.29S WCI  23
CRESCENT LAKE    N/A     36  32  86 E7          N/A  WCI  30
$$

...OBSERVATIONS IN NORTHERN NEBRASKA AND FAR SOUTHERN SOUTH DAKOTA...

CITY           SKY/WX    TMP DP  RH WIND       PRES   REMARKS
WINNER         FLURRIES  33  28  81 SW7       30.33R WCI  27
VALENTINE      CLEAR     30  28  92 NW5       30.31R WCI  25
AINSWORTH      CLEAR     31  30  99 NW5       30.31R WCI  26
O`NEILL        CLEAR     35  33  93 NW6       30.31R WCI  29
THEDFORD       CLEAR     31  29  94 CALM      30.33R
BROKEN BOW     CLEAR     29  26  89 N3        30.31R
ORD            CLEAR     29  27  92 NW7       30.29R WCI  22
ALBION         PTCLDY    34  32  93 NW6       30.30R WCI  28
VALENTINE NWR    N/A     28  26  94 NW5         N/A  WCI  23
HALSEY           N/A     30  30 100 W3          N/A
BUTTE            N/A     31  29  90 NW3         N/A
CHAMBERS         N/A     33  31  94 CALM        N/A
EWING            N/A     33  30  90 N3          N/A
$$

...OBSERVATIONS IN SOUTHWEST NEBRASKA AND FAR NORTHEAST COLORADO...

CITY           SKY/WX    TMP DP  RH WIND       PRES   REMARKS
WRAY           FAIR      34  25  69 E3        30.30R
HOLYOKE        FAIR      34  27  75 E7        30.30R WCI  28
IMPERIAL       CLEAR     31  27  85 E5        30.30S WCI  26
OGALLALA       CLEAR     31  28  90 CALM      30.31R
NORTH PLATTE   CLEAR     31  26  82 CALM      30.32R
MCCOOK         CLEAR     38  31  76 SW7       30.31R WCI  33
LEXINGTON      CLEAR     30  27  86 W6        30.32R WCI  24
STAPLETON        N/A     31  29  92 CALM        N/A
GOTHENBURG       N/A     36  29  75 CALM        N/A
CALLAWAY         N/A     35  31  84 N6          N/A  WCI  30
$$

...OBSERVATIONS IN CENTRAL LINCOLN COUNTY AREA...

CITY           SKY/WX    TMP DP  RH WIND       PRES   REMARKS
N.P. AIRPORT   CLEAR     31  26  82 CALM      30.32R
N.P. DOWNTOWN    N/A     36  31  83 CALM        N/A
N.P. SOUTHEAST   N/A     36  32  84 CALM        N/A
N.P. HILLCREST   N/A     34  31  89 CALM        N/A
$$

...OBSERVATIONS ACROSS THE ROCKIES AND WESTERN HIGH PLAINS...

CITY           SKY/WX    TMP DP  RH WIND       PRES   REMARKS
RAPID CITY     CLEAR     31  29  92 CALM      30.30R
SCOTTSBLUFF    CLEAR     36  26  67 CALM      30.29R
CHEYENNE       PTCLDY    34  18  52 SE5       30.27S WCI  30
DENVER         PTCLDY    30  14  51 SE13      30.27R WCI  20
BERTHOUD PASS  FAIR      16   5  62 S28G35    30.30S WCI  -4
MONARCH PASS   CLEAR     25  -4  28 S9G16     30.45S WCI  15
ASPEN          CLEAR     31  16  54 SW3       30.15F
STEAMBOAT      FAIR      33  15  47 NW5       30.13F WCI  29
LARAMIE        PTCLDY    32  16  51 SE17      30.21F WCI  21
CASPER         CLEAR     34  21  59 E10       30.18F WCI  26
$$

...OBSERVATIONS ACROSS THE NORTHERN PLAINS...

CITY           SKY/WX    TMP DP  RH WIND       PRES   REMARKS
BISMARCK       CLEAR     31  28  89 CALM      30.33R
FARGO          FAIR      33  30  88 NW3       30.29R
PIERRE         CLEAR     34  28  79 W3        30.32R
SIOUX FALLS    CLOUDY    33  26  75 N9        30.27R WCI  25
$$

...OBSERVATIONS ACROSS THE CENTRAL AND SOUTHERN PLAINS...

CITY           SKY/WX    TMP DP  RH WIND       PRES   REMARKS
OMAHA          PTCLDY    35  30  82 N13       30.27R WCI  26
GRAND ISLAND   CLEAR     32  29  88 NW12      30.30R WCI  23
KANSAS CITY    CLOUDY    38  28  67 NW7       30.22R WCI  33
WICHITA        CLEAR     43  30  60 NE8       30.29R
DODGE CITY     CLEAR     38  25  59 CALM      30.30R
OKLAHOMA CITY  CLEAR     51  27  39 NE8       30.27R
DALLAS         CLEAR     54  38  54 N12       30.19R
AMARILLO       LGT RAIN  45  10  24 E5        30.30R
$$




USA.gov is the U.S. government's official web portal to all federal, state and local government web resources and services.